[[{"header":{"parameterUnit":"m.s-1","parameterCategory":1,"la1":30.2992,"la2":30.254,"lo1":-89.0895,"lo2":-89.0443,"dy":0.0025,"dx":0.0025,"nx":19,"ny":19,"refTime":"2026-03-08T21:00:00:Z","depth":0,"parameterNumber":2,"parameterNumberName":"U-component_of_WINDS"},"data":[0,0,0,0.2248,0.2246,0.2158,0.2158,0.205,0.2049,0,0,0,0,0,0,0,0,0,0,0,0.2281,0.228,0.2248,0.2246,0.2158,0.2158,0.205,0.2049,0,0,0,0,0,0,0,0,0,0,0,0.2281,0.228,0.228,0.2246,0.2159,0.2158,0.205,0.2114,0,0,0,0,0,0,0,0,0,0,0.2198,0.2236,0.228,0.228,0.2246,0.2159,0.2158,0.2117,0.211,0.2093,0,0.2083,0,0.2065,0.2043,0.2042,0,0,0,0.224,0.2241,0.2213,0.228,0.2245,0.2159,0.2196,0.2113,0.2105,0.2084,0.2081,0.2077,0.2063,0.2042,0.2041,0.1972,0.1972,0,0,0.2245,0.2267,0.2218,0.2208,0.2226,0.2199,0.2194,0.2108,0.2105,0.2081,0.2074,0.2061,0.2041,0.204,0.1972,0.1972,0,0,0,0.2263,0.2271,0.2244,0.2213,0.2197,0.2197,0.219,0.2109,0.2099,0.2073,0.206,0.2041,0.2039,0.1972,0.1972,0.1993,0,0,0,0.2266,0.2281,0.2246,0.2259,0.2199,0.2152,0.2193,0.2105,0.2094,0.206,0.2041,0.2039,0.1972,0.1972,0.1992,0.1998,0,0,0,0.2284,0.2283,0.2273,0.226,0.2224,0.2153,0.2138,0.2102,0.2086,0.2042,0.2038,0.1972,0.1972,0.1992,0.1997,0.1987,0,0,0,0.2309,0.2291,0.2274,0.2249,0.2225,0.2169,0.2138,0.2094,0.2059,0.204,0.1972,0.1972,0.1992,0.1997,0.1987,0.1983,0.1983,0,0,0.2298,0.229,0.2274,0.2256,0.221,0.218,0.2135,0.2079,0.2052,0.1999,0.1997,0.1993,0.1997,0.1987,0.1979,0.198,0,0,0,0.2278,0.2266,0.2249,0.2218,0.2179,0.2144,0.2094,0.2073,0.2028,0.2031,0.1985,0.1987,0.198,0.1977,0.1978,0.197,0.1971,0.1971,0.1971,0.2293,0.2264,0.2234,0.2194,0.2165,0.2115,0.2087,0.205,0.2026,0.2016,0.2,0.1999,0.1996,0.1996,0.1989,0.1995,0.1995,0.1995,0.1995,0.2274,0.2253,0.2225,0.2187,0.2155,0.212,0.2071,0.2055,0.2017,0.2008,0.2,0.1993,0.1998,0.199,0.1996,0.1996,0.1996,0.1996,0.1996,0.2281,0.2266,0.2244,0.2198,0.2165,0.2124,0.209,0.206,0.2032,0.2025,0.2004,0.2004,0.1999,0.2017,0.2017,0.2017,0.2017,0.2017,0.2017,0.2296,0.2271,0.2248,0.2206,0.2183,0.2149,0.2099,0.2074,0.2039,0.202,0.202,0.1997,0.2005,0.2008,0.2017,0.2017,0.2017,0.2017,0.2017,0.2288,0.2286,0.225,0.2228,0.2176,0.2145,0.2109,0.2062,0.2037,0.2021,0.2,0.2011,0.1999,0.1998,0.2,0.2007,0.2007,0.2007,0.2007,0.2293,0.2286,0.2243,0.221,0.2173,0.2138,0.2095,0.2056,0.2014,0.1997,0.1991,0.1992,0.1992,0.198,0.198,0.1981,0.1982,0.1982,0.1982,0.2286,0.2274,0.2245,0.2209,0.2167,0.213,0.2089,0.2048,0.2,0.1981,0.1982,0.1983,0.1983,0.1985,0.1964,0.1965,0.1966,0,0]},{"header":{"parameterUnit":"m.s-1","parameterCategory":1,"la1":30.2992,"la2":30.254,"lo1":-89.0895,"lo2":-89.0443,"dy":0.0025,"dx":0.0025,"nx":19,"ny":19,"refTime":"2026-03-08T21:00:00:Z","depth":0,"parameterNumber":3,"parameterNumberName":"V-component_of_WINDS"},"data":[0,0,0,3.0274,3.0272,3.0168,3.0168,3.0032,3.0031,0,0,0,0,0,0,0,0,0,0,0,3.0309,3.0308,3.0274,3.0272,3.0169,3.0168,3.0033,3.0031,0,0,0,0,0,0,0,0,0,0,0,3.0309,3.0308,3.0308,3.0272,3.0169,3.0168,3.0033,3.0111,0,0,0,0,0,0,0,0,0,0,3.0211,3.0249,3.0309,3.0308,3.0271,3.0169,3.0168,3.0114,3.0106,3.008,0,3.0063,0,3.0045,3.0022,3.0022,0,0,0,3.0267,3.0256,3.0225,3.0307,3.027,3.0169,3.0214,3.011,3.01,3.0068,3.0061,3.0056,3.0043,3.0022,3.0021,2.9899,2.9898,0,0,3.0273,3.0291,3.0232,3.0219,3.0241,3.0217,3.0211,3.0104,3.0094,3.0061,3.0053,3.0041,3.0021,3.002,2.9899,2.9899,0,0,0,3.0293,3.0295,3.0267,3.0225,3.0207,3.0214,3.0207,3.0099,3.0089,3.0051,3.0039,3.002,3.0018,2.9899,2.9899,2.99,0,0,0,3.0296,3.0307,3.027,3.0279,3.0209,3.0153,3.0205,3.0096,3.0084,3.004,3.002,3.0017,2.99,2.9899,2.9901,2.9896,0,0,0,3.0314,3.0309,3.0296,3.0281,3.0237,3.0154,3.0138,3.0093,3.0077,3.0022,3.0017,2.99,2.9899,2.9902,2.9897,2.9869,0,0,0,3.0337,3.0296,3.0296,3.0245,3.0238,3.0158,3.0138,3.0076,3.0029,3.0019,2.99,2.9899,2.9902,2.9898,2.987,2.9847,2.9841,0,0,3.0295,3.0292,3.026,3.0257,3.0182,3.0172,3.0094,3.0032,3.0008,2.9935,2.9932,2.99,2.9897,2.9869,2.9798,2.9793,0,0,0,3.0252,3.023,3.0206,3.0165,3.012,3.0079,3.0028,3.0004,2.9942,2.9976,2.9882,2.988,2.9862,2.985,2.9846,2.9828,2.9895,2.9895,2.9895,3.0216,3.0191,3.0136,3.0099,3.0059,3.0007,2.997,2.9929,2.9912,2.989,2.9868,2.9829,2.9816,2.9812,2.9794,2.9855,2.9855,2.9855,2.9855,3.015,3.0113,3.0096,3.0036,3.0008,2.9955,2.9902,2.9892,2.9835,2.9843,2.9826,2.9836,2.9808,2.979,2.9855,2.9855,2.9855,2.9855,2.9855,3.0123,3.0101,3.0076,3.0014,2.9968,2.9929,2.9877,2.9852,2.9827,2.981,2.9783,2.9782,2.9777,2.98,2.9799,2.9799,2.9799,2.9799,2.9799,3.0103,3.0076,3.0038,2.9987,2.9957,2.9913,2.986,2.9827,2.9784,2.977,2.9769,2.9753,2.9811,2.9825,2.9797,2.9797,2.9797,2.9797,2.9798,3.0043,3.0054,2.9995,2.9965,2.9902,2.9856,2.9826,2.9762,2.9731,2.9705,2.9692,2.974,2.9733,2.9736,2.9748,2.97,2.97,2.97,2.97,3.0019,3.0015,2.9949,2.9903,2.9854,2.9821,2.9749,2.9706,2.9661,2.9639,2.9643,2.9656,2.9661,2.965,2.9656,2.9666,2.9599,2.9598,2.9598,2.998,2.997,2.9917,2.9879,2.9827,2.9782,2.9713,2.9655,2.9606,2.9594,2.9621,2.9625,2.9646,2.9655,2.9642,2.9651,2.9669,0,0]}]]